Time,TemperatureF,DewpointF,PressureIn,WindDirection,WindDirectionDegrees,WindSpeedMPH,WindSpeedGustMPH,Humidity,HourlyPrecipIn,Conditions,Clouds,dailyrainin,SoftwareType,DateUTC
2013-05-04 00:01:00,37.2,-99.9,28.68,South,180,8.0,-999.0,-999,-99.99,,,-99.99,,2013-05-03 23:01:00,
2013-05-04 00:08:00,37.0,-99.9,28.67,NNE,22,7.0,-999.0,-999,-99.99,,,-99.99,,2013-05-03 23:08:00,
2013-05-04 00:14:00,37.1,-99.9,28.67,North,0,8.0,-999.0,-999,-99.99,,,-99.99,,2013-05-03 23:14:00,
2013-05-04 00:20:00,37.3,-99.9,28.67,ESE,112,6.0,-999.0,-999,-99.99,,,-99.99,,2013-05-03 23:20:00,
2013-05-04 00:26:00,37.6,-99.9,28.67,SW,225,7.0,-999.0,-999,-99.99,,,-99.99,,2013-05-03 23:26:00,
2013-05-04 00:33:00,37.6,-99.9,28.67,WNW,292,9.0,-999.0,-999,-99.99,,,-99.99,,2013-05-03 23:33:00,
2013-05-04 00:39:00,37.6,-99.9,28.67,East,90,9.0,-999.0,-999,-99.99,,,-99.99,,2013-05-03 23:39:00,
2013-05-04 00:45:00,37.0,-99.9,28.67,WSW,247,8.0,-999.0,-999,-99.99,,,-99.99,,2013-05-03 23:45:00,
2013-05-04 00:52:00,36.3,-99.9,28.67,West,270,10.0,-999.0,-999,-99.99,,,-99.99,,2013-05-03 23:52:00,
2013-05-04 00:58:00,35.9,-99.9,28.67,WNW,292,9.0,-999.0,-999,-99.99,,,-99.99,,2013-05-03 23:58:00,
2013-05-04 01:04:00,35.8,-99.9,28.67,WSW,247,7.0,-999.0,-999,-99.99,,,-99.99,,2013-05-04 00:04:00,
2013-05-04 01:11:00,35.7,-99.9,28.66,WNW,292,11.0,-999.0,-999,-99.99,,,-99.99,,2013-05-04 00:11:00,
2013-05-04 01:17:00,35.7,-99.9,28.66,West,270,13.0,-999.0,-999,-99.99,,,-99.99,,2013-05-04 00:17:00,
2013-05-04 01:23:00,35.6,-99.9,28.67,WNW,292,10.0,-999.0,-999,-99.99,,,-99.99,,2013-05-04 00:23:00,
2013-05-04 01:30:00,35.4,-99.9,28.67,WNW,292,-999.0,-999.0,-999,-99.99,,,-99.99,,2013-05-04 00:30:00,
2013-05-04 01:36:00,35.3,-99.9,28.67,West,270,11.0,-999.0,-999,-99.99,,,-99.99,,2013-05-04 00:36:00,
2013-05-04 01:42:00,35.0,-99.9,28.67,WNW,292,10.0,-999.0,-999,-99.99,,,-99.99,,2013-05-04 00:42:00,
2013-05-04 01:48:00,34.9,-99.9,28.67,WSW,247,9.0,-999.0,-999,-99.99,,,-99.99,,2013-05-04 00:48:00,
2013-05-04 01:55:00,34.5,-99.9,28.68,WNW,292,10.0,-999.0,-999,-99.99,,,-99.99,,2013-05-04 00:55:00,
2013-05-04 02:01:00,34.1,-99.9,28.68,NW,315,4.0,-999.0,-999,-99.99,,,-99.99,,2013-05-04 01:01:00,
2013-05-04 02:07:00,34.0,-99.9,28.68,WSW,247,8.0,-999.0,-999,-99.99,,,-99.99,,2013-05-04 01:07:00,
2013-05-04 02:13:00,33.8,-99.9,28.68,SW,225,3.0,-999.0,-999,-99.99,,,-99.99,,2013-05-04 01:13:00,
2013-05-04 02:20:00,33.5,-99.9,28.68,WNW,292,5.0,-999.0,-999,-99.99,,,-99.99,,2013-05-04 01:20:00,
2013-05-04 02:26:00,33.3,-99.9,28.68,WSW,247,5.0,-999.0,-999,-99.99,,,-99.99,,2013-05-04 01:26:00,
2013-05-04 02:32:00,33.2,-99.9,28.68,West,270,7.0,-999.0,-999,-99.99,,,-99.99,,2013-05-04 01:32:00,
2013-05-04 02:38:00,33.2,-99.9,28.67,WSW,247,6.0,-999.0,-999,-99.99,,,-99.99,,2013-05-04 01:38:00,
2013-05-04 02:45:00,33.1,-99.9,28.68,WNW,292,7.0,-999.0,-999,-99.99,,,-99.99,,2013-05-04 01:45:00,
2013-05-04 02:51:00,33.1,-99.9,28.68,WSW,247,7.0,-999.0,-999,-99.99,,,-99.99,,2013-05-04 01:51:00,
2013-05-04 02:57:00,33.2,-99.9,28.68,WSW,247,4.0,-999.0,-999,-99.99,,,-99.99,,2013-05-04 01:57:00,
2013-05-04 03:03:00,33.0,-99.9,28.69,WSW,247,4.0,-999.0,-999,-99.99,,,-99.99,,2013-05-04 02:03:00,
2013-05-04 03:10:00,32.7,-99.9,28.69,WSW,247,4.0,-999.0,-999,-99.99,,,-99.99,,2013-05-04 02:10:00,
2013-05-04 03:16:00,32.7,-99.9,28.69,NW,315,9.0,-999.0,-999,-99.99,,,-99.99,,2013-05-04 02:16:00,
2013-05-04 03:22:00,32.8,-99.9,28.69,SW,225,-999.0,-999.0,-999,-99.99,,,-99.99,,2013-05-04 02:22:00,
2013-05-04 03:28:00,32.6,-99.9,28.69,WSW,247,6.0,-999.0,-999,-99.99,,,-99.99,,2013-05-04 02:28:00,
2013-05-04 03:34:00,32.7,-99.9,28.68,West,270,7.0,-999.0,-999,-99.99,,,-99.99,,2013-05-04 02:34:00,
2013-05-04 03:40:00,32.8,-99.9,28.68,West,270,6.0,-999.0,-999,-99.99,,,-99.99,,2013-05-04 02:40:00,
2013-05-04 03:47:00,32.8,-99.9,28.68,WSW,247,7.0,-999.0,-999,-99.99,,,-99.99,,2013-05-04 02:47:00,
2013-05-04 03:52:00,33.0,-99.9,28.68,SW,225,5.0,-999.0,-999,-99.99,,,-99.99,,2013-05-04 02:52:00,
2013-05-04 03:59:00,33.0,-99.9,28.69,WSW,247,3.0,-999.0,-999,-99.99,,,-99.99,,2013-05-04 02:59:00,
2013-05-04 04:05:00,32.8,-99.9,28.69,SW,225,3.0,-999.0,-999,-99.99,,,-99.99,,2013-05-04 03:05:00,
2013-05-04 04:11:00,32.7,-99.9,28.69,WSW,247,4.0,-999.0,-999,-99.99,,,-99.99,,2013-05-04 03:11:00,
2013-05-04 04:17:00,32.7,-99.9,28.69,SSW,202,3.0,-999.0,-999,-99.99,,,-99.99,,2013-05-04 03:17:00,
2013-05-04 04:24:00,32.5,-99.9,28.69,SE,135,3.0,-999.0,-999,-99.99,,,-99.99,,2013-05-04 03:24:00,
2013-05-04 04:29:00,32.3,-99.9,28.69,WSW,247,5.0,-999.0,-999,-99.99,,,-99.99,,2013-05-04 03:29:00,
2013-05-04 04:35:00,32.5,-99.9,28.68,West,270,9.0,-999.0,-999,-99.99,,,-99.99,,2013-05-04 03:35:00,
2013-05-04 04:41:00,32.5,-99.9,28.69,NW,315,8.0,-999.0,-999,-99.99,,,-99.99,,2013-05-04 03:41:00,
2013-05-04 04:47:00,32.3,-99.9,28.69,West,270,7.0,-999.0,-999,-99.99,,,-99.99,,2013-05-04 03:47:00,
2013-05-04 04:54:00,32.3,-99.9,28.69,WNW,292,9.0,-999.0,-999,-99.99,,,-99.99,,2013-05-04 03:54:00,
2013-05-04 05:00:00,32.1,-99.9,28.69,WNW,292,10.0,-999.0,-999,-99.99,,,-99.99,,2013-05-04 04:00:00,
2013-05-04 05:02:00,32.0,-99.9,28.69,West,270,8.0,-999.0,-999,-99.99,,,-99.99,,2013-05-04 04:02:00,
2013-05-04 05:04:00,31.9,-99.9,28.69,WNW,292,6.0,-999.0,-999,-99.99,,,-99.99,,2013-05-04 04:04:00,
2013-05-04 05:06:00,31.7,-99.9,28.69,West,270,7.0,-999.0,-999,-99.99,,,-99.99,,2013-05-04 04:06:00,
2013-05-04 05:08:00,31.8,-99.9,28.69,NW,315,9.0,-999.0,-999,-99.99,,,-99.99,,2013-05-04 04:08:00,
2013-05-04 05:15:00,31.9,-99.9,28.69,West,270,8.0,-999.0,-999,-99.99,,,-99.99,,2013-05-04 04:15:00,
2013-05-04 05:22:00,31.8,-99.9,28.69,West,270,-999.0,-999.0,-999,-99.99,,,-99.99,,2013-05-04 04:22:00,
2013-05-04 05:28:00,31.7,-99.9,28.68,WNW,292,4.0,-999.0,-999,-99.99,,,-99.99,,2013-05-04 04:28:00,
2013-05-04 05:34:00,31.5,-99.9,28.68,West,270,5.0,-999.0,-999,-99.99,,,-99.99,,2013-05-04 04:34:00,
2013-05-04 05:41:00,31.7,-99.9,28.69,West,270,7.0,-999.0,-999,-99.99,,,-99.99,,2013-05-04 04:41:00,
2013-05-04 05:47:00,32.0,-99.9,28.70,West,270,5.0,-999.0,-999,-99.99,,,-99.99,,2013-05-04 04:47:00,
2013-05-04 05:53:00,32.3,-99.9,28.70,WNW,292,6.0,-999.0,-999,-99.99,,,-99.99,,2013-05-04 04:53:00,
2013-05-04 06:00:00,32.3,-99.9,28.70,West,270,6.0,-999.0,-999,-99.99,,,-99.99,,2013-05-04 05:00:00,
2013-05-04 06:06:00,32.3,-99.9,28.70,West,270,8.0,-999.0,-999,-99.99,,,-99.99,,2013-05-04 05:06:00,
2013-05-04 06:12:00,33.2,-99.9,28.70,WNW,292,7.0,-999.0,-999,-99.99,,,-99.99,,2013-05-04 05:12:00,
2013-05-04 06:18:00,34.1,-99.9,28.70,West,270,7.0,-999.0,-999,-99.99,,,-99.99,,2013-05-04 05:18:00,
2013-05-04 06:25:00,34.7,-99.9,28.70,WNW,292,6.0,-999.0,-999,-99.99,,,-99.99,,2013-05-04 05:25:00,
2013-05-04 06:31:00,34.7,-99.9,28.70,WNW,292,7.0,-999.0,-999,-99.99,,,-99.99,,2013-05-04 05:31:00,
2013-05-04 06:37:00,36.0,-99.9,28.70,WSW,247,5.0,-999.0,-999,-99.99,,,-99.99,,2013-05-04 05:37:00,
2013-05-04 06:43:00,38.2,-99.9,28.70,West,270,7.0,-999.0,-999,-99.99,,,-99.99,,2013-05-04 05:43:00,
2013-05-04 06:51:00,39.1,-99.9,28.70,WSW,247,-999.0,-999.0,-999,-99.99,,,-99.99,,2013-05-04 05:51:00,
2013-05-04 06:57:00,39.8,-99.9,28.71,WNW,292,11.0,-999.0,-999,-99.99,,,-99.99,,2013-05-04 05:57:00,
2013-05-04 07:04:00,40.2,-99.9,28.70,WNW,292,10.0,-999.0,-999,-99.99,,,-99.99,,2013-05-04 06:04:00,
2013-05-04 07:11:00,40.5,-99.9,28.70,WNW,292,-999.0,-999.0,-999,-99.99,,,-99.99,,2013-05-04 06:11:00,
2013-05-04 07:17:00,41.1,-99.9,28.70,West,270,10.0,-999.0,-999,-99.99,,,-99.99,,2013-05-04 06:17:00,
2013-05-04 07:24:00,41.6,-99.9,28.70,WNW,292,-999.0,-999.0,-999,-99.99,,,-99.99,,2013-05-04 06:24:00,
2013-05-04 07:30:00,41.9,-99.9,28.70,WNW,292,5.0,-999.0,-999,-99.99,,,-99.99,,2013-05-04 06:30:00,
2013-05-04 07:36:00,41.9,-99.9,28.70,WNW,292,7.0,-999.0,-999,-99.99,,,-99.99,,2013-05-04 06:36:00,
2013-05-04 07:42:00,41.6,-99.9,28.70,NW,315,8.0,-999.0,-999,-99.99,,,-99.99,,2013-05-04 06:42:00,
2013-05-04 07:49:00,42.0,-99.9,28.71,West,270,7.0,-999.0,-999,-99.99,,,-99.99,,2013-05-04 06:49:00,
2013-05-04 07:55:00,42.6,-99.9,28.71,WSW,247,7.0,-999.0,-999,-99.99,,,-99.99,,2013-05-04 06:55:00,
2013-05-04 08:01:00,42.6,-99.9,28.71,WSW,247,8.0,-999.0,-999,-99.99,,,-99.99,,2013-05-04 07:01:00,
2013-05-04 08:07:00,42.3,-99.9,28.71,South,180,6.0,-999.0,-999,-99.99,,,-99.99,,2013-05-04 07:07:00,
2013-05-04 08:14:00,42.6,-99.9,28.71,SW,225,4.0,-999.0,-999,-99.99,,,-99.99,,2013-05-04 07:14:00,
2013-05-04 08:20:00,42.9,-99.9,28.71,West,270,8.0,-999.0,-999,-99.99,,,-99.99,,2013-05-04 07:20:00,
2013-05-04 08:26:00,43.2,-99.9,28.71,WSW,247,7.0,-999.0,-999,-99.99,,,-99.99,,2013-05-04 07:26:00,
2013-05-04 08:32:00,44.9,-99.9,28.72,West,270,10.0,-999.0,-999,-99.99,,,-99.99,,2013-05-04 07:32:00,
2013-05-04 08:39:00,47.1,-99.9,28.72,West,270,8.0,-999.0,-999,-99.99,,,-99.99,,2013-05-04 07:39:00,
2013-05-04 08:45:00,48.3,-99.9,28.72,WNW,292,11.0,-999.0,-999,-99.99,,,-99.99,,2013-05-04 07:45:00,
2013-05-04 08:51:00,48.5,-99.9,28.72,West,270,9.0,-999.0,-999,-99.99,,,-99.99,,2013-05-04 07:51:00,
2013-05-04 08:57:00,48.7,-99.9,28.72,WNW,292,13.0,-999.0,-999,-99.99,,,-99.99,,2013-05-04 07:57:00,
2013-05-04 09:04:00,49.4,-99.9,28.73,WSW,247,7.0,-999.0,-999,-99.99,,,-99.99,,2013-05-04 08:04:00,
2013-05-04 09:10:00,51.9,-99.9,28.72,WSW,247,6.0,-999.0,-999,-99.99,,,-99.99,,2013-05-04 08:10:00,
2013-05-04 09:16:00,52.8,-99.9,28.73,SW,225,13.0,-999.0,-999,-99.99,,,-99.99,,2013-05-04 08:16:00,
2013-05-04 09:22:00,52.6,-99.9,28.73,SW,225,11.0,-999.0,-999,-99.99,,,-99.99,,2013-05-04 08:22:00,
2013-05-04 09:29:00,52.1,-99.9,28.73,WSW,247,12.0,-999.0,-999,-99.99,,,-99.99,,2013-05-04 08:29:00,
2013-05-04 09:35:00,51.5,-99.9,28.73,WSW,247,7.0,-999.0,-999,-99.99,,,-99.99,,2013-05-04 08:35:00,
2013-05-04 09:41:00,51.1,-99.9,28.73,WSW,247,15.0,-999.0,-999,-99.99,,,-99.99,,2013-05-04 08:41:00,
2013-05-04 09:48:00,51.9,-99.9,28.72,West,270,-999.0,-999.0,-999,-99.99,,,-99.99,,2013-05-04 08:48:00,
2013-05-04 09:54:00,52.7,-99.9,28.73,SW,225,10.0,-999.0,-999,-99.99,,,-99.99,,2013-05-04 08:54:00,
2013-05-04 10:00:00,54.5,-99.9,28.73,West,270,7.0,-999.0,-999,-99.99,,,-99.99,,2013-05-04 09:00:00,
2013-05-04 10:06:00,55.1,-99.9,28.73,NW,315,6.0,-999.0,-999,-99.99,,,-99.99,,2013-05-04 09:06:00,
2013-05-04 10:13:00,55.0,-99.9,28.73,WNW,292,12.0,-999.0,-999,-99.99,,,-99.99,,2013-05-04 09:13:00,
2013-05-04 10:19:00,55.3,-99.9,28.73,NW,315,14.0,-999.0,-999,-99.99,,,-99.99,,2013-05-04 09:19:00,
2013-05-04 10:26:00,55.7,-99.9,28.73,SE,135,-999.0,-999.0,-999,-99.99,,,-99.99,,2013-05-04 09:26:00,
2013-05-04 10:32:00,56.4,-99.9,28.73,South,180,7.0,-999.0,-999,-99.99,,,-99.99,,2013-05-04 09:32:00,
2013-05-04 10:38:00,56.6,-99.9,28.72,SE,135,10.0,-999.0,-999,-99.99,,,-99.99,,2013-05-04 09:38:00,
2013-05-04 10:44:00,56.4,-99.9,28.73,ESE,112,9.0,-999.0,-999,-99.99,,,-99.99,,2013-05-04 09:44:00,
2013-05-04 10:51:00,56.3,-99.9,28.73,West,270,5.0,-999.0,-999,-99.99,,,-99.99,,2013-05-04 09:51:00,
2013-05-04 10:57:00,57.4,-99.9,28.72,West,270,13.0,-999.0,-999,-99.99,,,-99.99,,2013-05-04 09:57:00,
2013-05-04 11:03:00,57.1,-99.9,28.72,WNW,292,8.0,-999.0,-999,-99.99,,,-99.99,,2013-05-04 10:03:00,
2013-05-04 11:09:00,55.5,-99.9,28.73,WSW,247,8.0,-999.0,-999,-99.99,,,-99.99,,2013-05-04 10:09:00,
2013-05-04 11:16:00,53.6,-99.9,28.73,WSW,247,11.0,-999.0,-999,-99.99,,,-99.99,,2013-05-04 10:16:00,
2013-05-04 11:22:00,52.2,-99.9,28.73,West,270,12.0,-999.0,-999,-99.99,,,-99.99,,2013-05-04 10:22:00,
2013-05-04 11:28:00,52.1,-99.9,28.73,West,270,18.0,-999.0,-999,-99.99,,,-99.99,,2013-05-04 10:28:00,
2013-05-04 11:34:00,51.3,-99.9,28.73,WNW,292,19.0,-999.0,-999,-99.99,,,-99.99,,2013-05-04 10:34:00,
2013-05-04 11:40:00,50.7,-99.9,28.73,WNW,292,11.0,-999.0,-999,-99.99,,,-99.99,,2013-05-04 10:40:00,
2013-05-04 11:47:00,51.5,-99.9,28.73,WSW,247,9.0,-999.0,-999,-99.99,,,-99.99,,2013-05-04 10:47:00,
2013-05-04 11:53:00,52.1,-99.9,28.73,WSW,247,10.0,-999.0,-999,-99.99,,,-99.99,,2013-05-04 10:53:00,
2013-05-04 11:59:00,52.1,-99.9,28.73,West,270,11.0,-999.0,-999,-99.99,,,-99.99,,2013-05-04 10:59:00,
2013-05-04 12:05:00,52.0,-99.9,28.74,WSW,247,8.0,-999.0,-999,-99.99,,,-99.99,,2013-05-04 11:05:00,
2013-05-04 12:12:00,52.9,-99.9,28.73,WNW,292,11.0,-999.0,-999,-99.99,,,-99.99,,2013-05-04 11:12:00,
2013-05-04 12:18:00,52.8,-99.9,28.73,West,270,12.0,-999.0,-999,-99.99,,,-99.99,,2013-05-04 11:18:00,
2013-05-04 12:24:00,52.7,-99.9,28.74,WSW,247,11.0,-999.0,-999,-99.99,,,-99.99,,2013-05-04 11:24:00,
2013-05-04 12:30:00,53.3,-99.9,28.74,NW,315,12.0,-999.0,-999,-99.99,,,-99.99,,2013-05-04 11:30:00,
2013-05-04 12:37:00,53.5,-99.9,28.74,NW,315,12.0,-999.0,-999,-99.99,,,-99.99,,2013-05-04 11:37:00,
2013-05-04 12:43:00,55.3,-99.9,28.74,WSW,247,10.0,-999.0,-999,-99.99,,,-99.99,,2013-05-04 11:43:00,
2013-05-04 12:49:00,56.6,-99.9,28.74,WNW,292,10.0,-999.0,-999,-99.99,,,-99.99,,2013-05-04 11:49:00,
2013-05-04 12:55:00,55.5,-99.9,28.74,West,270,9.0,-999.0,-999,-99.99,,,-99.99,,2013-05-04 11:55:00,
2013-05-04 13:04:00,55.5,-99.9,28.74,WSW,247,15.0,-999.0,-999,-99.99,,,-99.99,,2013-05-04 12:04:00,
2013-05-04 13:10:00,56.3,-99.9,28.74,WSW,247,9.0,-999.0,-999,-99.99,,,-99.99,,2013-05-04 12:10:00,
2013-05-04 13:19:00,56.9,-99.9,28.74,NW,315,11.0,-999.0,-999,-99.99,,,-99.99,,2013-05-04 12:19:00,
2013-05-04 13:25:00,55.8,-99.9,28.75,SSW,202,10.0,-999.0,-999,-99.99,,,-99.99,,2013-05-04 12:25:00,
2013-05-04 13:31:00,54.3,-99.9,28.75,West,270,13.0,-999.0,-999,-99.99,,,-99.99,,2013-05-04 12:31:00,
2013-05-04 13:37:00,52.9,-99.9,28.75,NNW,337,9.0,-999.0,-999,-99.99,,,-99.99,,2013-05-04 12:37:00,
2013-05-04 13:44:00,52.1,-99.9,28.75,SW,225,8.0,-999.0,-999,-99.99,,,-99.99,,2013-05-04 12:44:00,
2013-05-04 13:50:00,52.0,-99.9,28.75,SW,225,8.0,-999.0,-999,-99.99,,,-99.99,,2013-05-04 12:50:00,
2013-05-04 13:56:00,51.6,-99.9,28.75,WNW,292,14.0,-999.0,-999,-99.99,,,-99.99,,2013-05-04 12:56:00,
2013-05-04 14:02:00,51.2,-99.9,28.75,WSW,247,13.0,-999.0,-999,-99.99,,,-99.99,,2013-05-04 13:02:00,
2013-05-04 14:06:00,50.9,-99.9,28.75,West,270,12.0,-999.0,-999,-99.99,,,-99.99,,2013-05-04 13:06:00,
2013-05-04 14:13:00,50.9,-99.9,28.75,WSW,247,12.0,-999.0,-999,-99.99,,,-99.99,,2013-05-04 13:13:00,
2013-05-04 14:19:00,51.1,-99.9,28.75,WNW,292,12.0,-999.0,-999,-99.99,,,-99.99,,2013-05-04 13:19:00,
2013-05-04 14:25:00,51.5,-99.9,28.75,West,270,16.0,-999.0,-999,-99.99,,,-99.99,,2013-05-04 13:25:00,
2013-05-04 14:32:00,51.1,-99.9,28.75,WNW,292,9.0,-999.0,-999,-99.99,,,-99.99,,2013-05-04 13:32:00,
2013-05-04 14:39:00,50.6,-99.9,28.75,WNW,292,-999.0,-999.0,-999,-99.99,,,-99.99,,2013-05-04 13:39:00,
2013-05-04 14:45:00,49.8,-99.9,28.76,West,270,14.0,-999.0,-999,-99.99,,,-99.99,,2013-05-04 13:45:00,
2013-05-04 14:52:00,49.2,-99.9,28.76,WNW,292,-999.0,-999.0,-999,-99.99,,,-99.99,,2013-05-04 13:52:00,
2013-05-04 14:58:00,48.7,-99.9,28.76,West,270,13.0,-999.0,-999,-99.99,,,-99.99,,2013-05-04 13:58:00,
2013-05-04 15:04:00,48.3,-99.9,28.76,West,270,10.0,-999.0,-999,-99.99,,,-99.99,,2013-05-04 14:04:00,
2013-05-04 15:10:00,47.9,-99.9,28.76,WSW,247,13.0,-999.0,-999,-99.99,,,-99.99,,2013-05-04 14:10:00,
2013-05-04 15:17:00,47.3,-99.9,28.76,WSW,247,13.0,-999.0,-999,-99.99,,,-99.99,,2013-05-04 14:17:00,
2013-05-04 15:23:00,47.1,-99.9,28.76,SSW,202,10.0,-999.0,-999,-99.99,,,-99.99,,2013-05-04 14:23:00,
2013-05-04 15:29:00,47.5,-99.9,28.76,SW,225,9.0,-999.0,-999,-99.99,,,-99.99,,2013-05-04 14:29:00,
2013-05-04 15:35:00,48.1,-99.9,28.76,West,270,10.0,-999.0,-999,-99.99,,,-99.99,,2013-05-04 14:35:00,
2013-05-04 15:42:00,48.0,-99.9,28.76,SSW,202,14.0,-999.0,-999,-99.99,,,-99.99,,2013-05-04 14:42:00,
2013-05-04 15:48:00,47.3,-99.9,28.76,WSW,247,11.0,-999.0,-999,-99.99,,,-99.99,,2013-05-04 14:48:00,
2013-05-04 15:54:00,47.1,-99.9,28.77,West,270,15.0,-999.0,-999,-99.99,,,-99.99,,2013-05-04 14:54:00,
2013-05-04 16:00:00,46.7,-99.9,28.76,NW,315,11.0,-999.0,-999,-99.99,,,-99.99,,2013-05-04 15:00:00,
2013-05-04 16:07:00,46.6,-99.9,28.77,West,270,14.0,-999.0,-999,-99.99,,,-99.99,,2013-05-04 15:07:00,
2013-05-04 16:13:00,46.8,-99.9,28.77,West,270,11.0,-999.0,-999,-99.99,,,-99.99,,2013-05-04 15:13:00,
2013-05-04 16:19:00,47.2,-99.9,28.77,WSW,247,12.0,-999.0,-999,-99.99,,,-99.99,,2013-05-04 15:19:00,
2013-05-04 16:25:00,47.5,-99.9,28.77,WSW,247,11.0,-999.0,-999,-99.99,,,-99.99,,2013-05-04 15:25:00,
2013-05-04 16:32:00,47.3,-99.9,28.77,WNW,292,13.0,-999.0,-999,-99.99,,,-99.99,,2013-05-04 15:32:00,
2013-05-04 16:38:00,47.1,-99.9,28.77,SW,225,10.0,-999.0,-999,-99.99,,,-99.99,,2013-05-04 15:38:00,
2013-05-04 16:44:00,47.0,-99.9,28.77,West,270,13.0,-999.0,-999,-99.99,,,-99.99,,2013-05-04 15:44:00,
2013-05-04 16:50:00,46.6,-99.9,28.77,West,270,12.0,-999.0,-999,-99.99,,,-99.99,,2013-05-04 15:50:00,
2013-05-04 16:56:00,46.4,-99.9,28.77,WSW,247,12.0,-999.0,-999,-99.99,,,-99.99,,2013-05-04 15:56:00,
2013-05-04 17:03:00,46.4,-99.9,28.77,WSW,247,11.0,-999.0,-999,-99.99,,,-99.99,,2013-05-04 16:03:00,
2013-05-04 17:09:00,46.3,-99.9,28.77,WSW,247,11.0,-999.0,-999,-99.99,,,-99.99,,2013-05-04 16:09:00,
2013-05-04 17:15:00,46.3,-99.9,28.77,WNW,292,11.0,-999.0,-999,-99.99,,,-99.99,,2013-05-04 16:15:00,
2013-05-04 17:22:00,46.4,-99.9,28.77,WNW,292,-999.0,-999.0,-999,-99.99,,,-99.99,,2013-05-04 16:22:00,
2013-05-04 17:28:00,46.5,-99.9,28.77,West,270,11.0,-999.0,-999,-99.99,,,-99.99,,2013-05-04 16:28:00,
2013-05-04 17:35:00,46.7,-99.9,28.77,SW,225,-999.0,-999.0,-999,-99.99,,,-99.99,,2013-05-04 16:35:00,
2013-05-04 17:41:00,46.8,-99.9,28.77,West,270,12.0,-999.0,-999,-99.99,,,-99.99,,2013-05-04 16:41:00,
2013-05-04 17:47:00,46.8,-99.9,28.77,West,270,14.0,-999.0,-999,-99.99,,,-99.99,,2013-05-04 16:47:00,
2013-05-04 17:53:00,47.0,-99.9,28.77,West,270,12.0,-999.0,-999,-99.99,,,-99.99,,2013-05-04 16:53:00,
2013-05-04 18:00:00,47.1,-99.9,28.78,WSW,247,12.0,-999.0,-999,-99.99,,,-99.99,,2013-05-04 17:00:00,
2013-05-04 18:06:00,47.1,-99.9,28.77,WSW,247,13.0,-999.0,-999,-99.99,,,-99.99,,2013-05-04 17:06:00,
2013-05-04 18:12:00,47.1,-99.9,28.77,WNW,292,12.0,-999.0,-999,-99.99,,,-99.99,,2013-05-04 17:12:00,
2013-05-04 18:18:00,47.3,-99.9,28.78,SSW,202,12.0,-999.0,-999,-99.99,,,-99.99,,2013-05-04 17:18:00,
2013-05-04 18:25:00,47.4,-99.9,28.78,WSW,247,13.0,-999.0,-999,-99.99,,,-99.99,,2013-05-04 17:25:00,
2013-05-04 18:31:00,47.4,-99.9,28.77,NW,315,12.0,-999.0,-999,-99.99,,,-99.99,,2013-05-04 17:31:00,
2013-05-04 18:38:00,47.5,-99.9,28.77,West,270,14.0,-999.0,-999,-99.99,,,-99.99,,2013-05-04 17:38:00,
2013-05-04 18:44:00,47.6,-99.9,28.78,WSW,247,10.0,-999.0,-999,-99.99,,,-99.99,,2013-05-04 17:44:00,
2013-05-04 18:50:00,47.8,-99.9,28.78,WNW,292,11.0,-999.0,-999,-99.99,,,-99.99,,2013-05-04 17:50:00,
2013-05-04 18:56:00,47.6,-99.9,28.78,NW,315,-999.0,-999.0,-999,-99.99,,,-99.99,,2013-05-04 17:56:00,
2013-05-04 19:03:00,47.5,-99.9,28.78,West,270,-999.0,-999.0,-999,-99.99,,,-99.99,,2013-05-04 18:03:00,
2013-05-04 19:09:00,47.3,-99.9,28.79,NW,315,11.0,-999.0,-999,-99.99,,,-99.99,,2013-05-04 18:09:00,
2013-05-04 19:15:00,47.1,-99.9,28.79,SW,225,10.0,-999.0,-999,-99.99,,,-99.99,,2013-05-04 18:15:00,
2013-05-04 19:21:00,46.8,-99.9,28.79,West,270,7.0,-999.0,-999,-99.99,,,-99.99,,2013-05-04 18:21:00,
2013-05-04 19:28:00,46.6,-99.9,28.79,WSW,247,8.0,-999.0,-999,-99.99,,,-99.99,,2013-05-04 18:28:00,
2013-05-04 19:34:00,46.5,-99.9,28.80,West,270,7.0,-999.0,-999,-99.99,,,-99.99,,2013-05-04 18:34:00,
2013-05-04 19:40:00,46.3,-99.9,28.80,WNW,292,7.0,-999.0,-999,-99.99,,,-99.99,,2013-05-04 18:40:00,
2013-05-04 19:46:00,46.4,-99.9,28.79,SSW,202,8.0,-999.0,-999,-99.99,,,-99.99,,2013-05-04 18:46:00,
2013-05-04 19:53:00,46.5,-99.9,28.79,NW,315,6.0,-999.0,-999,-99.99,,,-99.99,,2013-05-04 18:53:00,
2013-05-04 19:59:00,46.5,-99.9,28.79,North,0,-999.0,-999.0,-999,-99.99,,,-99.99,,2013-05-04 18:59:00,
2013-05-04 20:05:00,46.5,-99.9,28.79,WNW,292,10.0,-999.0,-999,-99.99,,,-99.99,,2013-05-04 19:05:00,
2013-05-04 20:12:00,46.5,-99.9,28.79,SW,225,12.0,-999.0,-999,-99.99,,,-99.99,,2013-05-04 19:12:00,
2013-05-04 20:18:00,46.6,-99.9,28.80,WSW,247,12.0,-999.0,-999,-99.99,,,-99.99,,2013-05-04 19:18:00,
2013-05-04 20:24:00,46.6,-99.9,28.80,WSW,247,12.0,-999.0,-999,-99.99,,,-99.99,,2013-05-04 19:24:00,
2013-05-04 20:31:00,46.5,-99.9,28.80,West,270,10.0,-999.0,-999,-99.99,,,-99.99,,2013-05-04 19:31:00,
2013-05-04 20:37:00,46.2,-99.9,28.80,West,270,9.0,-999.0,-999,-99.99,,,-99.99,,2013-05-04 19:37:00,
2013-05-04 20:43:00,46.0,-99.9,28.80,WNW,292,7.0,-999.0,-999,-99.99,,,-99.99,,2013-05-04 19:43:00,
2013-05-04 20:49:00,45.7,-99.9,28.80,NW,315,6.0,-999.0,-999,-99.99,,,-99.99,,2013-05-04 19:49:00,
2013-05-04 20:55:00,45.6,-99.9,28.81,West,270,7.0,-999.0,-999,-99.99,,,-99.99,,2013-05-04 19:55:00,
2013-05-04 21:02:00,45.5,-99.9,28.81,WNW,292,6.0,-999.0,-999,-99.99,,,-99.99,,2013-05-04 20:02:00,
2013-05-04 21:04:00,45.4,-99.9,28.81,West,270,6.0,-999.0,-999,-99.99,,,-99.99,,2013-05-04 20:04:00,
2013-05-04 21:10:00,45.3,-99.9,28.81,West,270,7.0,-999.0,-999,-99.99,,,-99.99,,2013-05-04 20:10:00,
2013-05-04 21:16:00,45.3,-99.9,28.82,WNW,292,7.0,-999.0,-999,-99.99,,,-99.99,,2013-05-04 20:16:00,
2013-05-04 21:23:00,45.2,-99.9,28.82,West,270,7.0,-999.0,-999,-99.99,,,-99.99,,2013-05-04 20:23:00,
2013-05-04 21:29:00,45.3,-99.9,28.82,WNW,292,6.0,-999.0,-999,-99.99,,,-99.99,,2013-05-04 20:29:00,
2013-05-04 21:35:00,45.2,-99.9,28.82,North,0,6.0,-999.0,-999,-99.99,,,-99.99,,2013-05-04 20:35:00,
2013-05-04 21:41:00,45.0,-99.9,28.82,West,270,6.0,-999.0,-999,-99.99,,,-99.99,,2013-05-04 20:41:00,
2013-05-04 21:47:00,44.9,-99.9,28.82,WSW,247,4.0,-999.0,-999,-99.99,,,-99.99,,2013-05-04 20:47:00,
2013-05-04 21:54:00,44.8,-99.9,28.82,West,270,5.0,-999.0,-999,-99.99,,,-99.99,,2013-05-04 20:54:00,
2013-05-04 22:00:00,44.8,-99.9,28.82,SW,225,6.0,-999.0,-999,-99.99,,,-99.99,,2013-05-04 21:00:00,
2013-05-04 22:06:00,45.0,-99.9,28.82,WSW,247,7.0,-999.0,-999,-99.99,,,-99.99,,2013-05-04 21:06:00,
2013-05-04 22:12:00,44.9,-99.9,28.82,WSW,247,7.0,-999.0,-999,-99.99,,,-99.99,,2013-05-04 21:12:00,
2013-05-04 22:19:00,44.8,-99.9,28.82,West,270,6.0,-999.0,-999,-99.99,,,-99.99,,2013-05-04 21:19:00,
2013-05-04 22:25:00,44.9,-99.9,28.83,WSW,247,5.0,-999.0,-999,-99.99,,,-99.99,,2013-05-04 21:25:00,
2013-05-04 22:31:00,44.9,-99.9,28.83,WSW,247,5.0,-999.0,-999,-99.99,,,-99.99,,2013-05-04 21:31:00,
2013-05-04 22:37:00,44.9,-99.9,28.82,West,270,5.0,-999.0,-999,-99.99,,,-99.99,,2013-05-04 21:37:00,
2013-05-04 22:44:00,44.8,-99.9,28.82,WSW,247,7.0,-999.0,-999,-99.99,,,-99.99,,2013-05-04 21:44:00,
2013-05-04 22:50:00,44.8,-99.9,28.83,WSW,247,6.0,-999.0,-999,-99.99,,,-99.99,,2013-05-04 21:50:00,
2013-05-04 22:56:00,44.7,-99.9,28.83,WSW,247,7.0,-999.0,-999,-99.99,,,-99.99,,2013-05-04 21:56:00,
2013-05-04 23:02:00,44.8,-99.9,28.83,West,270,5.0,-999.0,-999,-99.99,,,-99.99,,2013-05-04 22:02:00,
2013-05-04 23:09:00,45.0,-99.9,28.83,WNW,292,8.0,-999.0,-999,-99.99,,,-99.99,,2013-05-04 22:09:00,
2013-05-04 23:15:00,45.3,-99.9,28.83,West,270,9.0,-999.0,-999,-99.99,,,-99.99,,2013-05-04 22:15:00,
2013-05-04 23:21:00,45.4,-99.9,28.83,WSW,247,8.0,-999.0,-999,-99.99,,,-99.99,,2013-05-04 22:21:00,
2013-05-04 23:27:00,45.3,-99.9,28.83,NW,315,7.0,-999.0,-999,-99.99,,,-99.99,,2013-05-04 22:27:00,
2013-05-04 23:34:00,45.2,-99.9,28.83,SW,225,8.0,-999.0,-999,-99.99,,,-99.99,,2013-05-04 22:34:00,
2013-05-04 23:40:00,45.3,-99.9,28.84,WNW,292,9.0,-999.0,-999,-99.99,,,-99.99,,2013-05-04 22:40:00,
2013-05-04 23:46:00,45.2,-99.9,28.84,WSW,247,7.0,-999.0,-999,-99.99,,,-99.99,,2013-05-04 22:46:00,
2013-05-04 23:52:00,44.9,-99.9,28.84,NW,315,7.0,-999.0,-999,-99.99,,,-99.99,,2013-05-04 22:52:00,
2013-05-04 23:59:00,44.8,-99.9,28.84,WNW,292,8.0,-999.0,-999,-99.99,,,-99.99,,2013-05-04 22:59:00,